Location: Chrome
(40.5765°N, 74.2163°W)
Time: 12:06:48
(UTC+00:00)

ATLAS 3B R/B - Pass Details

Date: 06 December 2019
Orbit: 1027 x 1168 km, 63.8° (Epoch: 19 January)

Event Time Altitude Azimuth Distance (km) Brightness Sun altitude
Rises 22:42:33 0° 322° (NW) 3,804 5.9 -13.5°
Reaches altitude 10° 22:45:11 10° 319° (NW) 2,860 5.2 -13.9°
Maximum altitude 22:51:46 58° 242° (WSW) 1,227 3.4 -15.1°
Drops below altitude 10° 22:58:32 10° 165° (SSE) 2,934 5.0 -16.4°
Sets 23:01:16 0° 162° (SSE) 3,909 5.6 -16.9°
